Weather History for KIMT - March, 2013

Change the Weather History Date:

Sunday, March 31, 2013

  Actual Average Record
Temperature  
Mean Temperature 32 °F -  
Max Temperature 41 °F 45 °F 70 °F (1938)
Min Temperature 23 °F 23 °F 0 °F (1987)
Degree Days  
Heating Degree Days 33    
Moisture  
Dew Point 25 °F    
Average Humidity 75    
Maximum Humidity 96    
Minimum Humidity 46    
Precipitation  
Precipitation 0.00 in - - ()
Sea Level Pressure  
Sea Level Pressure 29.69 in    
Wind  
Wind Speed 11 mph (WNW)    
Max Wind Speed 30 mph    
Max Gust Speed 38 mph    
Visibility 8 miles    
Events Rain , Snow    
Averages and records for this station are not official NWS values.
T = Trace of Precipitation, MM = Missing Value Source: NWS Daily Summary

Daily Weather History Graph

Daily Weather History Graph

Search for Another Location

Airport or City:

Trip Planner

Search our weather history database for the weather conditions in past years. The results will help you decide how hot, cold, wet, or windy it might be!

Date:

Astronomy

Mar. 31, 2013 Rise Set
Actual Time 6:33 AM CDT 7:19 PM CDT
Civil Twilight 6:03 AM CDT 7:50 PM CDT
Nautical Twilight 5:28 AM CDT 8:25 PM CDT
Astronomical Twilight 4:50 AM CDT 9:03 PM CDT
Moon No Moon Rise 9:07 AM CDT
Length of Visible Light 13h 46m
Length of Day
12h 46m
Waning Gibbous, 77% of the Moon is Illuminated
Mar 31
Waning Gibbous
Apr 2
Last Quarter
Apr 10
New
Apr 18
First Quarter
Apr 25
Full

Hourly Weather History & Observations

Time (CDT) Temp. Windchill Dew Point Humidity Pressure Visibility Wind Dir Wind Speed Gust Speed Precip Events Conditions
12:15 AM 35.6 °F 29.9 °F 33.8 °F 93% 29.70 in 6.0 mi WNW 6.9 mph - N/A   Overcast
12:54 AM 35.1 °F 32.2 °F 34.0 °F 96% 29.73 in 4.0 mi WNW 3.5 mph - N/A   Overcast
1:54 AM 36.0 °F 33.3 °F 34.0 °F 93% 29.71 in 5.0 mi WNW 3.5 mph - N/A   Overcast
2:46 AM 35.6 °F 31.7 °F 33.8 °F 93% 29.65 in 6.0 mi WNW 4.6 mph - N/A   Overcast
2:54 AM 36.0 °F 31.1 °F 34.0 °F 93% 29.69 in 6.0 mi WNW 5.8 mph - N/A   Overcast
3:54 AM 36.0 °F 30.3 °F 34.0 °F 93% 29.67 in 7.0 mi WNW 6.9 mph - N/A   Overcast
4:14 AM 35.6 °F 30.7 °F 33.8 °F 93% 29.62 in 7.0 mi West 5.8 mph - N/A   Scattered Clouds
4:54 AM 34.0 °F 29.8 °F 32.0 °F 92% 29.65 in 7.0 mi WNW 4.6 mph - N/A   Clear
5:54 AM 34.0 °F 29.8 °F 30.9 °F 89% 29.64 in 8.0 mi West 4.6 mph - N/A   Clear
6:54 AM 33.1 °F 30.0 °F 30.0 °F 89% 29.63 in 7.0 mi West 3.5 mph - N/A   Scattered Clouds
7:54 AM 34.0 °F 27.2 °F 30.0 °F 85% 29.64 in 9.0 mi West 8.1 mph - N/A   Clear
8:54 AM 37.0 °F 28.9 °F 30.0 °F 76% 29.62 in 10.0 mi West 12.7 mph 19.6 mph N/A   Clear
9:54 AM 39.0 °F 34.8 °F 30.0 °F 70% 29.60 in 10.0 mi West 5.8 mph - N/A   Scattered Clouds
10:54 AM 41.0 °F 33.5 °F 28.9 °F 62% 29.59 in 10.0 mi West 13.8 mph - N/A   Mostly Cloudy
11:35 AM 39.2 °F 30.8 °F 28.4 °F 65% 29.56 in 10.0 mi West 15.0 mph 21.9 mph N/A   Overcast
11:43 AM 39.2 °F 31.2 °F 28.4 °F 65% 29.56 in 10.0 mi West 13.8 mph 21.9 mph N/A   Overcast
11:54 AM 37.9 °F 29.2 °F 28.9 °F 70% 29.60 in 10.0 mi WNW 15.0 mph 26.5 mph N/A   Overcast
12:12 PM 37.4 °F 31.4 °F 30.2 °F 75% 29.57 in 10.0 mi West 8.1 mph - N/A   Overcast
12:46 PM 37.4 °F 28.9 °F 28.4 °F 70% 29.57 in 10.0 mi WNW 13.8 mph 24.2 mph 0.00 in   Overcast
12:54 PM 37.0 °F 25.6 °F 27.0 °F 67% 29.61 in 9.0 mi NW 24.2 mph 32.2 mph 0.00 in Rain Light Rain
1:04 PM 35.6 °F 26.6 °F 28.4 °F 75% 29.57 in 6.0 mi NW 13.8 mph 28.8 mph 0.00 in Snow Light Snow
1:54 PM 37.9 °F 27.3 °F 24.1 °F 57% 29.62 in 8.0 mi NW 21.9 mph 31.1 mph 0.00 in   Overcast
2:54 PM 37.0 °F 24.5 °F 18.0 °F 46% 29.64 in 10.0 mi NW 29.9 mph 36.8 mph 0.00 in   Overcast
3:54 PM 36.0 °F 25.6 °F 18.0 °F 48% 29.66 in 10.0 mi WNW 18.4 mph 29.9 mph N/A   Mostly Cloudy
4:54 PM 30.9 °F 17.2 °F 19.9 °F 64% 29.71 in 10.0 mi NW 25.3 mph 34.5 mph 0.00 in   Mostly Cloudy
5:54 PM 30.9 °F 17.2 °F 19.0 °F 61% 29.74 in 10.0 mi NNW 25.3 mph 35.7 mph 0.00 in   Mostly Cloudy
6:08 PM 28.4 °F 15.8 °F 19.4 °F 69% 29.71 in 2.5 mi NW 18.4 mph 38.0 mph 0.00 in Snow Light Snow
6:16 PM 28.4 °F 15.8 °F 19.4 °F 69% 29.72 in 9.0 mi NNW 18.4 mph 26.5 mph 0.00 in   Mostly Cloudy
6:54 PM 28.0 °F 16.1 °F 17.1 °F 63% 29.77 in 10.0 mi NNW 16.1 mph - 0.00 in   Mostly Cloudy
7:18 PM 28.4 °F 16.6 °F 17.6 °F 64% 29.74 in 10.0 mi NNW 16.1 mph 23.0 mph N/A   Mostly Cloudy
7:44 PM 26.6 °F 11.7 °F 19.4 °F 74% 29.75 in 10.0 mi NW 24.2 mph 31.1 mph N/A   Overcast
8:07 PM 26.6 °F 13.1 °F 19.4 °F 74% 29.76 in 6.0 mi NNW 19.6 mph 27.6 mph 0.00 in Snow Light Snow
8:19 PM 26.6 °F 15.2 °F 19.4 °F 74% 29.77 in 9.0 mi NW 13.8 mph 24.2 mph 0.00 in   Overcast
8:54 PM 25.0 °F 14.8 °F 18.0 °F 75% 29.83 in 10.0 mi NW 10.4 mph - 0.00 in   Clear
9:54 PM 25.0 °F 13.1 °F 17.1 °F 72% 29.85 in 10.0 mi NW 13.8 mph - N/A   Scattered Clouds
10:37 PM 23.0 °F 11.1 °F 17.6 °F 80% 29.81 in 3.0 mi NW 12.7 mph 23.0 mph 0.00 in Snow Light Snow
10:46 PM 23.0 °F 9.2 °F 17.6 °F 80% 29.81 in 9.0 mi NW 17.3 mph - 0.00 in   Mostly Cloudy
10:54 PM 24.1 °F 11.0 °F 18.0 °F 77% 29.86 in 8.0 mi NW 16.1 mph - 0.00 in Snow Light Snow
11:39 PM 23.0 °F 10.1 °F 14.0 °F 68% 29.82 in 10.0 mi NW 15.0 mph 27.6 mph 0.00 in   Scattered Clouds